Wind_Speed
13 11 9 9 19 30 32 32 30 28 23 21 17 13 11 11 9 8 8 11 13 15 16 15 13 11 12 12 9 13 12 4 2 1 2 5 6 7 9 6 3 8 15 16 6
16 13 12 10 9 15 24 32 33 31 28 24 20 16 13 13 13 11 9 11 14 14 14 15 14 12 12 12 14 16 16 3 2 6 3 6 6 9 9 5 3 9 15 16 12
17 16 14 12 10 8 13 21 27 30 30 28 25 19 16 14 13 14 12 13 16 17 16 16 16 15 10 13 16 18 10 6 7 9 6 6 11 11 11 9 5 8 15 14 14
17 16 17 16 13 11 8 11 16 25 29 30 29 25 21 16 16 16 15 14 14 19 21 19 17 14 16 17 18 14 12 8 10 7 7 11 11 12 10 12 9 8 11 13 13
22 18 18 17 17 15 13 10 8 10 21 27 28 28 24 21 19 18 17 17 15 16 18 20 19 17 16 15 21 13 11 10 8 11 11 13 15 13 11 9 12 9 8 10 11
21 22 21 19 19 19 18 15 14 12 10 15 24 26 25 25 22 20 19 20 19 17 17 18 19 20 19 18 16 11 9 11 8 12 9 12 14 12 12 11 11 7 5 8 10
22 22 21 22 20 20 20 20 19 16 14 13 12 21 24 28 24 23 24 23 21 19 20 21 19 14 14 17 15 9 7 7 11 12 10 12 12 10 12 11 9 7 5 7 9
23 23 24 22 23 22 21 21 21 20 18 17 15 13 17 26 25 25 28 25 25 25 24 20 19 15 15 16 17 11 8 9 10 12 12 10 10 7 11 10 9 8 6 8 8
25 24 24 25 23 22 23 23 22 23 20 19 17 15 17 16 21 29 28 26 28 26 26 20 18 20 15 15 13 11 12 12 12 15 13 14 9 6 9 11 13 10 8 6 6
24 25 24 25 25 24 23 25 24 24 22 21 19 18 15 14 16 23 27 26 26 25 26 24 25 21 18 16 15 17 11 17 15 20 16 15 15 9 6 12 13 12 11 8 8
28 26 26 25 25 25 27 25 25 26 25 24 19 21 18 13 16 19 21 27 26 22 22 25 26 22 22 21 21 23 18 17 15 17 11 13 13 12 13 12 16 14 14 11 10
31 29 29 28 26 26 27 28 28 25 26 26 23 21 20 18 19 22 18 20 26 20 22 26 22 23 24 23 22 24 23 19 20 17 15 11 15 13 16 17 14 19 13 14 14
35 32 31 31 30 28 28 26 27 27 26 27 26 23 24 21 20 19 17 18 23 22 23 24 18 27 23 24 26 24 24 24 22 23 18 18 15 23 21 15 16 16 17 19 15
41 36 33 33 31 28 30 31 28 26 29 25 27 27 28 22 20 21 20 20 18 18 25 29 27 25 22 24 27 25 24 24 28 28 22 21 14 17 21 20 20 21 21 13 17
45 42 39 34 34 32 29 31 31 28 30 29 29 28 30 25 22 25 20 21 20 21 24 21 23 28 16 20 21 22 23 21 24 27 28 22 25 25 24 21 21 25 14 11 11
48 48 44 41 38 36 32 29 33 32 32 31 29 26 28 26 27 27 24 24 23 23 21 21 21 16 20 21 22 24 24 21 23 29 27 24 30 25 26 18 16 20 18 18 15
50 49 48 47 44 39 36 32 32 37 32 32 30 30 28 25 29 29 27 25 24 24 20 21 22 20 21 21 20 20 23 23 28 27 23 22 25 26 25 21 15 17 20 22 25
47 49 49 48 48 45 41 37 36 37 31 32 32 28 28 27 27 30 30 28 26 25 23 23 21 21 22 23 20 26 22 29 21 21 22 21 27 22 21 21 18 17 20 21 25
47 48 48 47 46 46 45 43 37 33 31 34 35 33 29 28 26 31 29 29 27 26 26 23 22 22 23 24 23 23 21 21 23 25 20 22 28 26 21 20 16 14 22 24 26
48 47 48 48 45 45 45 45 41 36 34 34 35 35 31 30 30 31 33 30 23 25 27 24 26 25 24 23 22 23 22 23 22 22 20 21 26 29 24 21 22 23 26 25 27
48 51 47 47 45 45 45 44 42 38 36 37 37 37 35 32 35 34 34 31 30 25 28 26 28 26 22 18 16 17 21 23 23 22 19 15 22 27 22 21 21 21 25 29 27
45 48 49 47 48 46 44 42 44 42 39 40 40 38 36 35 34 37 34 35 34 31 31 27 28 30 22 21 18 17 20 20 18 15 20 20 18 24 23 25 26 25 22 24 28
51 52 53 54 52 50 49 48 47 47 41 45 44 41 39 38 36 38 36 36 38 33 33 31 33 29 29 22 14 17 20 20 19 19 20 23 20 21 28 29 31 30 30 20 23
54 55 55 55 54 56 54 54 52 51 48 47 48 43 40 39 39 39 39 39 38 38 35 33 33 31 29 21 22 22 19 20 22 21 20 21 25 26 28 28 30 31 31 27 24
56 56 56 57 57 55 55 55 57 56 55 49 50 47 44 43 43 39 42 42 40 39 39 35 35 32 27 28 25 22 19 20 20 21 23 20 25 27 22 20 19 19 19 20 25
57 56 54 53 53 53 54 56 57 58 57 53 54 51 49 49 46 43 46 47 44 42 40 38 30 33 31 30 29 23 20 20 20 24 22 22 16 19 14 11 10 10 12 18 19
48 47 45 46 48 49 50 57 57 59 61 58 57 57 51 51 52 49 51 52 49 47 44 40 36 34 35 30 32 31 14 17 23 19 19 19 15 8 5 7 12 11 8 7 8
Wind_Direction
269 273 283 286 246 242 242 245 251 260 262 267 271 272 271 271 274 279 249 233 227 212 213 228 243 253 253 243 229 254 265 40 134 282 13 343 18 331 331 340 332 251 250 250 259
265 265 267 274 287 252 243 240 241 251 260 264 269 271 270 266 266 268 262 236 226 223 224 241 248 246 263 264 260 261 284 258 296 252 291 322 341 342 334 322 295 264 247 245 246
264 261 262 261 265 271 252 241 240 243 249 255 262 265 266 263 259 263 267 257 233 235 236 241 238 239 256 263 273 285 285 264 286 255 270 329 340 326 325 310 275 245 246 233 239
260 258 256 256 253 255 255 246 240 241 244 249 251 256 258 257 252 252 252 253 253 241 241 247 251 247 230 245 255 274 285 285 290 287 290 310 304 313 328 304 282 255 250 233 232
260 260 256 250 253 249 249 245 235 246 245 241 241 244 247 246 250 255 250 253 246 253 242 242 247 249 245 250 258 265 284 289 284 281 285 291 301 307 300 294 277 266 257 230 222
261 261 258 257 250 249 247 247 249 244 248 246 241 239 238 239 242 245 248 244 244 240 248 250 253 248 248 253 256 256 276 276 275 283 285 282 282 302 312 303 277 271 260 225 217
257 262 261 256 256 251 249 249 248 250 251 251 246 243 240 240 232 230 229 236 239 239 240 249 264 264 252 254 257 255 270 270 275 279 284 287 293 316 314 304 295 296 276 250 239
254 254 259 259 254 253 250 251 250 250 250 252 253 251 242 247 237 235 236 230 234 231 235 247 253 259 246 239 241 247 257 262 271 264 265 267 292 337 321 314 290 287 286 274 259
252 252 255 257 259 256 252 250 251 251 251 251 253 254 250 256 243 245 237 235 235 240 239 240 238 245 251 242 244 244 244 247 250 255 251 252 246 273 306 313 298 288 277 259 243
254 254 252 253 254 259 257 252 251 252 251 250 249 251 253 251 255 251 247 244 242 241 239 236 233 236 241 233 228 236 236 252 249 233 239 258 251 270 289 290 289 279 274 258 246
250 251 251 249 253 254 256 257 255 252 248 249 246 249 249 233 236 250 261 246 246 251 252 246 241 236 231 229 231 235 207 247 231 235 248 234 262 266 286 277 274 269 260 258 252
238 243 248 248 247 249 255 255 256 253 252 252 247 248 248 246 232 239 257 249 240 244 250 253 252 243 235 228 230 237 232 242 248 242 256 256 279 286 268 274 276 278 264 254 255
236 236 239 239 247 246 253 257 256 255 253 251 247 242 245 241 241 243 251 253 244 233 241 249 253 254 248 239 233 231 241 238 257 253 263 279 294 297 287 289 278 265 262 243 251
236 233 234 234 244 244 246 247 252 252 252 252 249 241 245 239 243 240 238 246 243 241 244 251 245 251 251 242 241 242 244 251 266 271 267 275 275 276 272 275 281 278 259 259 256
237 234 231 231 234 241 242 248 250 255 253 249 251 248 247 248 237 242 239 237 237 235 241 250 251 245 249 248 249 250 251 258 255 262 273 275 271 258 262 270 270 275 281 272 279
241 236 233 232 235 234 238 240 246 247 252 252 249 250 246 244 243 242 240 236 238 243 246 245 254 257 243 245 248 251 250 252 247 252 258 255 263 264 271 272 267 277 285 289 291
242 240 235 231 236 233 229 236 242 244 249 254 251 248 247 244 242 243 244 241 241 245 248 249 250 250 250 239 238 243 245 248 247 251 253 258 267 272 264 274 266 269 283 298 305
240 238 236 232 235 234 231 232 239 246 247 253 255 251 250 245 243 244 240 241 245 247 244 248 249 248 252 252 250 244 247 253 259 257 263 256 261 266 270 270 264 274 284 293 302
239 236 234 235 234 235 234 230 236 238 239 245 250 254 247 246 239 244 241 241 243 243 246 249 253 249 247 254 258 250 253 253 258 255 260 251 263 254 262 266 268 275 293 293 296
234 232 230 230 234 233 232 229 232 234 233 240 245 250 247 241 238 241 244 236 234 242 245 244 248 244 248 252 257 257 251 249 256 265 270 253 260 260 259 263 262 274 281 276 277
236 231 230 229 230 230 229 230 234 237 234 238 242 244 245 241 244 241 241 241 236 234 239 239 245 248 250 255 255 254 254 253 258 259 266 275 253 263 272 268 263 262 264 273 285
239 236 234 235 235 234 232 232 233 235 232 234 238 240 245 245 239 242 241 242 238 237 236 238 242 249 252 256 257 253 254 260 262 261 260 272 273 285 280 278 271 260 256 264 274
251 246 240 240 238 238 238 236 235 236 234 231 232 237 240 241 239 238 239 237 241 237 239 237 238 243 245 249 266 258 254 257 260 255 265 270 281 275 281 284 285 282 279 268 272
249 249 247 245 241 238 237 237 236 236 238 234 233 231 234 237 238 238 238 236 237 237 238 239 242 240 249 250 245 248 253 255 257 260 268 268 275 280 276 278 280 282 272 276 285
252 250 248 247 247 244 241 238 237 235 233 236 230 230 227 230 234 234 242 240 238 238 237 237 244 243 241 252 249 253 256 261 260 260 262 270 271 281 286 288 284 283 277 274 270
248 247 245 245 245 245 243 238 234 234 233 231 234 232 224 224 229 228 235 240 239 239 236 236 239 242 243 247 255 250 246 253 261 267 275 275 283 275 292 302 304 291 262 253 261
240 240 240 239 242 241 242 239 236 233 230 231 231 233 232 227 225 224 226 234 238 239 239 237 235 238 244 248 252 251 248 249 251 264 266 276 271 293 288 262 259 261 259 253 253
Height
5859 5859 5860 5860 5860 5863 5866 5869 5870 5871 5873 5874 5875 5877 5878 5878 5878 5877 5877 5879 5880 5880 5882 5883 5882 5880 5879 5878 5875 5876 5880 5879 5879 5878 5878 5877 5875 5875 5876 5877 5876 5875 5875 5875 5877
5856 5856 5857 5858 5857 5857 5859 5861 5865 5867 5868 5870 5872 5873 5875 5876 5877 5876 5876 5876 5878 5879 5881 5882 5881 5879 5880 5879 5878 5876 5880 5878 5880 5877 5877 5876 5875 5873 5875 5874 5873 5872 5871 5874 5875
5852 5852 5853 5854 5855 5855 5855 5856 5858 5861 5864 5866 5868 5869 5871 5873 5875 5875 5875 5875 5876 5877 5878 5878 5877 5877 5878 5878 5877 5877 5878 5878 5878 5877 5876 5874 5870 5872 5872 5871 5870 5869 5868 5871 5873
5847 5848 5850 5851 5852 5853 5853 5853 5854 5855 5858 5860 5862 5864 5866 5868 5873 5872 5873 5873 5874 5874 5875 5875 5875 5876 5875 5876 5876 5877 5874 5875 5874 5874 5873 5871 5872 5871 5869 5868 5867 5865 5867 5869 5871
5843 5844 5845 5846 5848 5850 5851 5852 5851 5852 5852 5854 5856 5858 5861 5863 5866 5868 5870 5870 5871 5871 5871 5871 5872 5873 5873 5874 5874 5874 5872 5869 5871 5870 5871 5870 5869 5869 5868 5866 5865 5864 5864 5866 5869
5838 5839 5840 5841 5843 5845 5846 5848 5849 5849 5849 5849 5851 5853 5855 5858 5861 5863 5865 5866 5867 5867 5868 5867 5867 5868 5870 5871 5871 5872 5871 5869 5869 5866 5869 5868 5868 5869 5868 5866 5863 5862 5863 5864 5866
5834 5834 5836 5836 5838 5840 5841 5843 5846 5847 5847 5847 5847 5848 5851 5851 5855 5858 5858 5861 5863 5864 5863 5862 5864 5866 5867 5868 5866 5867 5869 5867 5865 5864 5865 5864 5865 5867 5865 5865 5863 5862 5861 5862 5864
5829 5830 5831 5832 5833 5835 5836 5838 5840 5842 5843 5844 5844 5845 5845 5845 5850 5852 5853 5855 5857 5857 5858 5860 5860 5862 5863 5863 5863 5864 5865 5865 5865 5863 5862 5863 5862 5863 5863 5862 5862 5861 5860 5861 5863
5822 5824 5826 5827 5828 5830 5832 5832 5835 5836 5838 5840 5841 5842 5842 5843 5846 5846 5849 5851 5851 5853 5853 5856 5856 5856 5858 5859 5860 5860 5860 5861 5862 5861 5861 5861 5860 5859 5860 5860 5860 5860 5860 5859 5861
5817 5818 5820 5821 5823 5825 5826 5828 5829 5831 5833 5834 5837 5839 5839 5840 5841 5841 5843 5846 5847 5848 5849 5850 5850 5851 5854 5855 5854 5854 5857 5857 5858 5858 5858 5857 5858 5855 5857 5858 5858 5857 5857 5858 5859
5809 5812 5814 5815 5817 5819 5821 5823 5825 5827 5828 5829 5833 5833 5834 5835 5836 5836 5837 5841 5842 5844 5845 5844 5846 5849 5848 5849 5849 5849 5851 5849 5851 5852 5854 5853 5857 5854 5854 5855 5854 5854 5854 5855 5858
5801 5803 5807 5809 5811 5813 5815 5816 5817 5819 5822 5824 5826 5828 5830 5831 5831 5831 5833 5836 5838 5840 5840 5841 5844 5844 5844 5845 5846 5846 5847 5845 5846 5849 5851 5852 5853 5851 5851 5850 5852 5851 5851 5852 5853
5792 5795 5797 5801 5804 5806 5808 5810 5812 5813 5815 5817 5820 5822 5823 5826 5825 5828 5829 5829 5832 5836 5836 5836 5841 5838 5842 5842 5842 5842 5843 5843 5843 5843 5848 5849 5850 5843 5843 5849 5849 5849 5847 5847 5849
5782 5785 5788 5792 5797 5797 5799 5802 5804 5806 5808 5812 5813 5816 5816 5820 5822 5822 5824 5826 5828 5832 5831 5832 5834 5834 5837 5838 5838 5840 5841 5841 5838 5838 5846 5845 5847 5842 5841 5843 5845 5845 5843 5844 5845
5772 5775 5778 5782 5786 5788 5792 5795 5798 5800 5800 5805 5806 5809 5811 5815 5816 5816 5819 5819 5822 5824 5826 5828 5828 5831 5833 5834 5835 5838 5838 5839 5837 5837 5837 5840 5839 5837 5839 5840 5841 5840 5840 5839 5840
5760 5765 5768 5772 5775 5777 5783 5786 5790 5793 5793 5795 5799 5801 5804 5808 5809 5810 5814 5815 5817 5818 5820 5822 5823 5825 5828 5830 5831 5832 5833 5833 5834 5833 5834 5834 5832 5834 5833 5835 5837 5835 5833 5834 5837
5748 5753 5757 5761 5765 5768 5773 5778 5782 5783 5787 5789 5790 5794 5797 5801 5802 5805 5807 5810 5812 5813 5815 5817 5818 5820 5821 5823 5824 5826 5828 5827 5828 5828 5829 5830 5828 5828 5829 5829 5830 5830 5829 5829 5829
5736 5741 5746 5749 5754 5758 5763 5768 5771 5776 5779 5781 5783 5787 5791 5793 5796 5797 5801 5803 5805 5807 5809 5810 5813 5816 5817 5817 5819 5820 5821 5823 5823 5823 5824 5826 5823 5825 5823 5823 5825 5827 5826 5826 5825
5724 5729 5734 5737 5743 5747 5753 5757 5763 5766 5769 5771 5774 5778 5784 5786 5790 5789 5794 5797 5799 5801 5803 5805 5806 5809 5811 5811 5814 5816 5817 5817 5816 5818 5818 5820 5817 5819 5822 5822 5822 5823 5822 5822 5822
5713 5717 5721 5727 5732 5736 5742 5747 5752 5755 5757 5763 5765 5768 5774 5779 5780 5783 5785 5791 5795 5795 5796 5800 5799 5802 5804 5806 5808 5809 5811 5811 5813 5812 5811 5814 5810 5811 5817 5820 5821 5821 5819 5817 5816
5701 5705 5710 5715 5721 5725 5731 5736 5743 5749 5747 5753 5756 5758 5763 5769 5773 5775 5779 5783 5786 5789 5790 5793 5793 5796 5798 5801 5804 5804 5803 5806 5808 5807 5807 5807 5808 5805 5809 5812 5815 5815 5813 5810 5808
5688 5693 5699 5704 5710 5715 5720 5726 5732 5736 5737 5741 5747 5750 5755 5760 5764 5767 5771 5776 5778 5781 5783 5788 5788 5788 5793 5794 5797 5799 5798 5799 5801 5803 5801 5801 5803 5799 5802 5803 5804 5806 5807 5805 5804
5674 5679 5686 5691 5695 5702 5707 5713 5718 5724 5727 5729 5735 5740 5745 5750 5755 5757 5762 5766 5771 5775 5776 5782 5781 5783 5785 5791 5793 5793 5793 5794 5795 5796 5795 5796 5797 5797 5794 5794 5794 5793 5794 5798 5796
5660 5664 5670 5675 5680 5686 5692 5699 5704 5711 5716 5717 5723 5730 5737 5740 5744 5747 5753 5757 5762 5768 5770 5773 5775 5778 5780 5785 5784 5786 5788 5789 5789 5790 5792 5791 5789 5789 5787 5786 5785 5785 5786 5788 5788
5642 5647 5655 5660 5664 5671 5676 5685 5689 5695 5700 5704 5710 5718 5726 5732 5735 5741 5744 5748 5753 5758 5763 5766 5769 5773 5776 5775 5778 5780 5782 5782 5785 5785 5784 5787 5783 5780 5781 5780 5780 5780 5782 5783 5782
5625 5632 5639 5644 5648 5653 5658 5665 5671 5677 5686 5694 5699 5705 5713 5720 5726 5732 5734 5738 5744 5748 5754 5758 5763 5766 5769 5770 5771 5775 5777 5777 5778 5778 5778 5776 5779 5775 5776 5776 5775 5776 5777 5777 5777
5611 5617 5624 5630 5634 5639 5641 5648 5654 5660 5670 5678 5685 5691 5700 5709 5714 5719 5723 5726 5734 5739 5744 5751 5754 5759 5763 5765 5765 5764 5773 5773 5773 5774 5773 5772 5773 5773 5772 5772 5771 5771 5772 5772 5772